Captain Cook, HI (96704)

10:06 PM HST on February 20, 2017 (GMT -1000)
Captain Cook | | Change Station
Active Advisory: Small Craft Advisory

Elev 1503 ft 19.47 °N, 155.89 °W | Updated 22 seconds ago

Partly Cloudy
Partly Cloudy
63.2 °F
Feels Like 63.2 °F
N
2.0
Wind Variable Wind from East

Today
High -- | Low -- °F
--% Chance of Precip.
Yesterday
High -- | Low -- °F
Precip. -- in
Pressure 30.16 in
Visibility 10.0 miles
Clouds Clear
Dew Point 59 °F
Humidity 86%
Rainfall 0.00 in
Snow Depth Not available.
6:49 AM 6:25 PM
Waning Crescent, 27% visible
METAR PHKO 210753Z 03008KT 10SM CLR 22/12 A3015 RMK AO2 SLP211 T02220122
Pressure 30.16 in
Visibility 10.0 miles
Clouds Clear
Dew Point 59 °F
Humidity 86%
Rainfall 0.00 in
Snow Depth Not available.
6:49 AM 6:25 PM
Waning Crescent, 27% visible
METAR PHKO 210753Z 03008KT 10SM CLR 22/12 A3015 RMK AO2 SLP211 T02220122

Get Your Daily Forecast Email!

Thanks for signing up!

Be on the lookout for a verification email in your inbox.

You'll start receiving the daily forecast at 8 AM.

×

10-Day Weather Forecast

Almanac

Astronomy

Feb. 20, 2017 Rise Set
Actual Time
Civil Twilight
Nautical Twilight
Astronomical Twilight
Moon
Length of Visible Light
Length of Day
Tomorrow will be .
, % of the Moon is Illuminated

Today's Extremes

State Highs State Lows

Community

WunderPhotos

Upload Photos

1,962,540 photos uploaded!

WunderBlog® & News

Nearby

Air Quality

  Air Quality AQ Index Pollutant
Not available.

Snow Depth

Station Depth Elevation

Earthquake Activity

City Distance Mag. Time & Date
Minimum magnitude displayed is 2.5.

Coastal Water Temperatures

Place Temperature

Stations

Nearby Weather Stations

Station Location Temp. Windchill Dew Point Humidity Wind Precip. Elev Updated Type
                   

Watches & Warnings

Small Craft Advisory
Issued: 8:33 PM HST Feb. 20, 2017 – National Weather Service

... Small Craft Advisory remains in effect until 6 PM HST
Wednesday...

* winds and seas... east winds 20 to 30 kt. Seas 8 to 12 ft.

Precautionary/preparedness actions...

A Small Craft Advisory means that winds speeds of 25 to 33 knots
and/or seas 10 feet or greater are expected to produce conditions
hazardous to small craft. Inexperienced mariners... especially
those operating smaller vessels... should avoid navigating in
these conditions.



Ts